Flag for Germany Weather past 2 weeks in Radebeul, Saxony, Germany

Now
51 °F

Scattered clouds.


Feels Like: 49 °F
Forecast: 33 / 49 °F
Wind: 5 mph from South

Location: Dresden-Klotzsche


UV Index: 3 (Moderate)

Visibility: 38 mi


Pressure: 30.29 "Hg

Humidity: 35%

Dew point: 23 °F

Location of RadebeulLocation

Historic Weather in Radebeul

°F

Radebeul temperature yesterday

Maximum temperature yesterday: 51 °F (at 4:00 PM)
Minimum temperature yesterday: 37 °F (at 6:00 AM)
Average temperature yesterday: 43 °F

Past Weeks' High & Low Weather Summary

 TemperatureHumidityPressure
High71 °F (Apr 3, 2:00 PM)98% (Apr 16, 7:00 AM)30.45 "Hg (Apr 16, 7:00 AM)
Low30 °F (Apr 17, 6:00 AM)32% (Apr 2, 4:00 PM)29.65 "Hg (Apr 3, 6:00 PM)
Average50 °F71%30.01 "Hg
* Reported Apr 2 11:00 AM — Apr 17 11:00 AM, Radebeul, Weather by CustomWeather, © 2014

Note: Actual official high and low records may vary slightly from our data, if they occured in-between our weather recording intervals... More about our weather records

Advertising

Historic Weather Conditions — Data for Previous 24 hours

 ConditionsComfort  
Time TempWeatherWind HumidityBarometerVisibility
11:00 AM
Apr 17
49 °FScattered clouds.5 mph36%30.32 "Hg37 mi
10:00 AM46 °FPassing clouds.2 mph52%30.35 "Hg31 mi
9:00 AM39 °FPassing clouds.3 mph74%30.37 "Hg31 mi
8:00 AM33 °FPassing clouds.5 mph87%30.39 "Hg31 mi
7:00 AM31 °FPassing clouds.5 mph92%30.39 "Hg31 mi
6:00 AM30 °FPassing clouds.5 mph92%30.39 "Hg34 mi
4:00 AM32 °FClear.5 mph89%30.42 "Hg31 mi
3:00 AM33 °FClear.5 mph87%30.43 "Hg31 mi
2:00 AM34 °FPassing clouds.5 mph84%30.43 "Hg31 mi
1:00 AM35 °FPassing clouds.5 mph80%30.43 "Hg31 mi
12:00 AM38 °FPassing clouds.3 mph68%30.43 "Hg31 mi
11:00 PM
Apr 16
43 °FClear.2 mph51%30.42 "Hg31 mi
10:00 PM43 °FClear.1 mph52%30.42 "Hg31 mi
9:00 PM45 °FPassing clouds.2 mph46%30.42 "Hg31 mi
8:00 PM47 °FPassing clouds.2 mph44%30.41 "Hg34 mi
7:00 PM48 °FPassing clouds.3 mph46%30.41 "Hg34 mi
6:00 PM49 °FScattered clouds.5 mph39%30.41 "Hg31 mi
5:00 PM49 °FOvercast.3 mph42%30.41 "Hg34 mi
4:00 PM51 °FOvercast.3 mph37%30.41 "Hg31 mi
3:00 PM50 °FPartly sunny.5 mph40%30.41 "Hg31 mi
2:00 PM50 °FScattered clouds.6 mph47%30.42 "Hg31 mi
1:00 PM46 °FPartly sunny.3 mph60%30.42 "Hg25 mi
12:00 PM45 °FScattered clouds.3 mph69%30.44 "Hg19 mi
Weather by CustomWeather, © 2014

See weather overview